Zurück zum Katalog

H2SAT

AktivWissenschaftGEO
NORAD 57213·PAYLOAD·🇩🇪 Germany

Gestartet Jul 5, 2023 von Guiana Space Centre

Loading…

TLE

AktuellSource: Space-Track

Epoche: Sep 14, 2026, 00:24 UTC

1 57213U 23093A   26257.01735947  .00000000  00000-0  00000-0 0  9993
2 57213   0.0221  42.1196 0000441  89.6839 228.2003  1.00270538 11814

Verfolge H2SAT in Echtzeit mit AllMySat

Download on the App Store